Weather History for KLNR - April, 2013

Change the Weather History Date:

Wednesday, April 10, 2013

  Actual Average Record
Temperature  
Mean Temperature 35 °F -  
Max Temperature 37 °F 53 °F 82 °F (2011)
Min Temperature 33 °F 33 °F 19 °F (2007)
Degree Days  
Heating Degree Days 30    
Moisture  
Dew Point 32 °F    
Average Humidity 86    
Maximum Humidity 93    
Minimum Humidity 81    
Precipitation  
Precipitation 0.89 in - - ()
Sea Level Pressure  
Sea Level Pressure 29.99 in    
Wind  
Wind Speed 13 mph (ENE)    
Max Wind Speed 20 mph    
Max Gust Speed 36 mph    
Visibility 6 miles    
Events Rain , Thunderstorm    
Averages and records for this station are not official NWS values.
T = Trace of Precipitation, MM = Missing Value Source: NWS Daily Summary

Daily Weather History Graph

Daily Weather History Graph

Search for Another Location

Airport or City:

Trip Planner

Search our weather history database for the weather conditions in past years. The results will help you decide how hot, cold, wet, or windy it might be!

Date:

Astronomy

Apr. 10, 2013 Rise Set
Actual Time 6:26 AM CDT 7:38 PM CDT
Civil Twilight 5:57 AM CDT 8:07 PM CDT
Nautical Twilight 5:22 AM CDT 8:42 PM CDT
Astronomical Twilight 4:45 AM CDT 9:19 PM CDT
Moon 6:21 AM CDT (4/10) 8:15 PM CDT (4/10)
Length of Visible Light 14h 10m
Length of Day
13h 11m
New Moon, 0% of the Moon is Illuminated
Apr 10
New Moon
Apr 18
First Quarter
Apr 25
Full
May 2
Last Quarter
May 9
New

Hourly Weather History & Observations

Time (CDT) Temp. Windchill Dew Point Humidity Pressure Visibility Wind Dir Wind Speed Gust Speed Precip Events Conditions
12:04 AM 37.4 °F 29.8 °F 33.8 °F 87% 30.06 in 5.0 mi NNW 11.5 mph - 0.01 in Rain , Thunderstorm Light Thunderstorms and Rain
12:18 AM 35.6 °F 27.1 °F 33.8 °F 93% 30.04 in 1.8 mi NNE 12.7 mph 19.6 mph 0.09 in Rain , Thunderstorm Heavy Thunderstorms and Rain
12:27 AM 35.6 °F 25.5 °F 32.0 °F 87% 30.01 in 3.0 mi NE 17.3 mph - 0.11 in Rain , Thunderstorm Light Thunderstorms and Rain
12:35 AM 35.6 °F 26.6 °F 32.0 °F 87% 30.01 in 5.0 mi NE 13.8 mph 21.9 mph 0.11 in Rain , Thunderstorm Light Rain
12:56 AM 35.1 °F 25.2 °F 30.9 °F 85% 30.01 in 6.0 mi NE 16.1 mph 24.2 mph 0.14 in Rain , Thunderstorm Light Rain
1:09 AM 35.6 °F 26.2 °F 30.2 °F 81% 30.01 in 4.0 mi NE 15.0 mph 25.3 mph 0.03 in Rain , Thunderstorm Rain
1:30 AM 35.6 °F 27.5 °F 30.2 °F 81% 30.00 in 5.0 mi ENE 11.5 mph - 0.09 in Rain Light Rain
1:54 AM 35.6 °F 27.1 °F 32.0 °F 87% 30.00 in 4.0 mi ENE 12.7 mph - 0.15 in Rain , Thunderstorm Light Rain
1:56 AM 35.1 °F 25.9 °F 32.0 °F 89% 30.00 in 5.0 mi ENE 13.8 mph - 0.15 in Rain , Thunderstorm Light Rain
2:07 AM 35.6 °F 25.5 °F 30.2 °F 81% 29.97 in 9.0 mi East 17.3 mph 23.0 mph 0.00 in Rain Light Rain
2:53 AM 35.6 °F 26.6 °F 32.0 °F 87% 29.94 in 10.0 mi East 13.8 mph - 0.00 in   Overcast
2:56 AM 36.0 °F 29.0 °F 32.0 °F 86% 29.95 in 10.0 mi ENE 9.2 mph 19.6 mph 0.00 in   Overcast
3:15 AM 35.6 °F 27.5 °F 32.0 °F 87% 30.07 in 2.5 mi North 11.5 mph 26.5 mph 0.07 in Rain Heavy Rain
3:30 AM 35.6 °F 28.0 °F 30.2 °F 81% 30.10 in 4.0 mi NNW 10.4 mph 21.9 mph 0.12 in Rain , Thunderstorm Rain
3:38 AM 33.8 °F 23.2 °F 30.2 °F 87% 29.99 in 3.0 mi East 17.3 mph 20.7 mph 0.15 in Rain , Thunderstorm Heavy Rain
3:40 AM 33.8 °F 22.8 °F 30.2 °F 87% 29.99 in 3.0 mi East 18.4 mph - 0.16 in Rain , Thunderstorm Heavy Rain
3:46 AM 33.8 °F 23.5 °F 30.2 °F 87% 29.99 in 2.5 mi East 16.1 mph - 0.21 in Rain , Thunderstorm Heavy Rain
3:56 AM 35.1 °F 26.4 °F 30.9 °F 85% 30.01 in 3.0 mi East 12.7 mph - 0.24 in Rain , Thunderstorm Rain
4:24 AM 33.8 °F 24.8 °F 30.2 °F 87% 29.98 in 4.0 mi NE 12.7 mph 35.7 mph 0.12 in Rain Rain
4:38 AM 35.6 °F 28.6 °F 32.0 °F 87% 29.96 in 8.0 mi ENE 9.2 mph - 0.13 in Rain Light Rain
4:56 AM 35.1 °F 25.2 °F 30.9 °F 85% 29.98 in 7.0 mi East 16.1 mph 28.8 mph 0.15 in Rain Light Rain
5:08 AM 35.6 °F 28.6 °F 30.2 °F 81% 30.01 in 7.0 mi ENE 9.2 mph - 0.02 in Rain Light Rain
5:53 AM 35.6 °F 26.6 °F 30.2 °F 81% 30.00 in 10.0 mi NE 13.8 mph 21.9 mph 0.05 in Rain Light Rain
5:56 AM 35.1 °F 25.5 °F 30.0 °F 82% 29.99 in 10.0 mi NE 15.0 mph 21.9 mph 0.05 in Rain Light Rain
6:56 AM 34.0 °F 25.0 °F 30.9 °F 89% 30.00 in 10.0 mi ENE 12.7 mph 19.6 mph 0.01 in   Overcast
7:56 AM 34.0 °F 25.0 °F 30.0 °F 85% 29.93 in 10.0 mi ENE 12.7 mph 23.0 mph N/A   Overcast
8:56 AM 35.1 °F 29.3 °F 32.0 °F 89% 29.98 in 9.0 mi NE 6.9 mph - N/A   Overcast
9:56 AM 36.0 °F 31.1 °F 33.1 °F 89% 30.02 in 8.0 mi NNE 5.8 mph - N/A   Overcast
10:27 AM 35.6 °F 29.9 °F 32.0 °F 87% 30.06 in 6.0 mi ENE 6.9 mph - N/A   Overcast
10:34 AM 35.6 °F 29.2 °F 33.8 °F 93% 30.04 in 1.8 mi ENE 8.1 mph - 0.00 in Rain Light Rain
10:56 AM 36.0 °F 28.0 °F 33.1 °F 89% 30.02 in 1.8 mi ENE 11.5 mph - 0.01 in   Overcast
11:03 AM 35.6 °F 27.5 °F 33.8 °F 93% 30.01 in 2.0 mi ENE 11.5 mph - N/A   Overcast
11:35 AM 35.6 °F 28.0 °F 33.8 °F 93% 29.97 in 4.0 mi NE 10.4 mph - N/A   Overcast
11:56 AM 36.0 °F 26.0 °F 33.1 °F 89% 29.97 in 10.0 mi NE 17.3 mph 25.3 mph N/A   Overcast
12:05 PM 35.6 °F 26.6 °F 33.8 °F 93% 29.97 in 10.0 mi NE 13.8 mph 27.6 mph N/A   Overcast
12:56 PM 37.0 °F 29.8 °F 33.1 °F 86% 30.03 in 10.0 mi East 10.4 mph - N/A   Overcast
1:56 PM 37.0 °F 28.5 °F 33.1 °F 86% 30.02 in 8.0 mi ENE 13.8 mph - 0.00 in Rain Light Rain
2:44 PM 35.6 °F 28.0 °F 33.8 °F 93% 30.04 in 2.5 mi ENE 10.4 mph - 0.04 in Rain Rain
2:52 PM 35.6 °F 28.0 °F 33.8 °F 93% 30.04 in 3.0 mi ENE 10.4 mph - 0.05 in Rain Light Rain
2:56 PM 36.0 °F 29.6 °F 33.1 °F 89% 30.04 in 4.0 mi ENE 8.1 mph - 0.06 in Rain Light Rain
3:56 PM 37.0 °F 28.9 °F 33.1 °F 86% 29.99 in 7.0 mi ENE 12.7 mph - 0.03 in Rain Light Rain
4:56 PM 37.9 °F 29.2 °F 34.0 °F 86% 29.92 in 10.0 mi ENE 15.0 mph 25.3 mph 0.00 in   Overcast
5:56 PM 37.9 °F 27.9 °F 33.1 °F 83% 29.93 in 10.0 mi ENE 19.6 mph 25.3 mph N/A   Overcast
6:56 PM 37.9 °F 30.0 °F 33.1 °F 83% 29.96 in 10.0 mi ENE 12.7 mph - N/A   Overcast
7:44 PM 37.4 °F 28.9 °F 32.0 °F 81% 29.93 in 9.0 mi ENE 13.8 mph 26.5 mph N/A   Overcast
7:56 PM 37.0 °F 29.3 °F 33.1 °F 86% 29.95 in 6.0 mi NE 11.5 mph - 0.00 in Rain Light Rain
8:56 PM 37.0 °F 27.0 °F 32.0 °F 82% 29.96 in 10.0 mi ENE 18.4 mph - 0.00 in   Overcast
9:56 PM 36.0 °F 25.3 °F 32.0 °F 86% 29.93 in 7.0 mi East 19.6 mph 25.3 mph 0.01 in Rain Light Rain
10:51 PM 37.4 °F 27.5 °F 32.0 °F 81% 29.92 in 8.0 mi ENE 18.4 mph 25.3 mph 0.01 in Rain Light Rain
10:56 PM 37.0 °F 27.0 °F 32.0 °F 82% 29.92 in 8.0 mi ENE 18.4 mph - 0.01 in Rain Light Rain
11:56 PM 37.0 °F 27.0 °F 32.0 °F 82% 29.91 in 7.0 mi East 18.4 mph - 0.03 in Rain Light Rain